Terminal Aerodrome Forecast
Issued by NWS Charleston, WV

Current Version | Previous Version | Graphics & Text | Print | Product List | Glossary On
Versions: 1 2 3 4 5 6 7 8 9 10 11 12 13 14 15 16 17 18 19 20 21 22 23
000
FTUS41 KRLX 240300 AAB
TAFEKN
TAF AMD
KEKN 240305Z 2403/2424 VRB03KT 3SM -RA BR FEW003 OVC025
     FM240700 03004KT 1SM -SN BR OVC003
     FM241400 29007KT 2SM -SN BR OVC010
     FM241600 29009KT 5SM -RASN BR BKN020=

USA.gov is the U.S. government's official web portal to all federal, state and local government web resources and services.